Volver al catálogo

STARLINK-5459

ActivoComunicacionesVLEO
NORAD 55669·PAYLOAD·🇺🇸 United States

Lanzado Feb 17, 2023 desde Vandenberg Space Force Base

Loading…

Próximos Pases (próximas 24 horas)

TLE

ActualizadoSource: CelesTrak SupGP

Época: Sep 15, 2026, 02:39 UTC

1 55669C 23021AT  26258.11090278 -.00036045  00000+0 -30217-2 0  2582
2 55669  70.0021  46.8669 0003272 269.2077 239.2783 14.98335443    18

Sigue STARLINK-5459 en tiempo real con AllMySat

Download on the App Store